• In Netherlands
  • List of Countries
  • For 7 days
  • Water Temperature
  • Satellite Maps
  • Weather Map
  • Weather Widgets
  • user-avatar
    Login

    Hourly Weather Viedma

    Today, 26 February, Sunday

    Time Temperature Precipitation Wind Pressure Humidity
    00:00 +23°C° 0 mm 5 mps 755 mmHg 79%
    01:00 +23°C° 0 mm 5 mps 755 mmHg 80%
    02:00 +23°C° 0 mm 5 mps 755 mmHg 78%
    03:00 +23°C° 0 mm 5 mps 755 mmHg 78%
    04:00 +23°C° 0 mm 5 mps 754 mmHg 78%
    05:00 +23°C° 0 mm 5 mps 754 mmHg 78%
    06:00 +23°C° 0 mm 5 mps 754 mmHg 74%
    07:00 +25°C° 0 mm 5 mps 754 mmHg 70%
    08:00 +26°C° 0 mm 5 mps 754 mmHg 68%
    09:00 +28°C° 0 mm 5 mps 754 mmHg 61%
    10:00 +30°C° 0 mm 5 mps 754 mmHg 54%
    11:00 +33°C° 0 mm 5 mps 754 mmHg 47%
    12:00 +35°C° 0 mm 5 mps 754 mmHg 43%
    13:00 +36°C° 0 mm 5 mps 753 mmHg 39%
    14:00 +38°C° 0 mm 6 mps 753 mmHg 35%
    15:00 +38°C° 0 mm 6 mps 753 mmHg 35%
    16:00 +38°C° 0 mm 6 mps 752 mmHg 34%
    17:00 +36°C° 0 mm 6 mps 752 mmHg 34%
    18:00 +35°C° 0.1 mm 5 mps 752 mmHg 37%
    19:00 +34°C° 0.1 mm 5 mps 752 mmHg 40%
    20:00 +33°C° 0.1 mm 4 mps 752 mmHg 42%
    21:00 +32°C° 1.1 mm 5 mps 752 mmHg 49%
    22:00 +30°C° 1.1 mm 6 mps 752 mmHg 55%
    23:00 +28°C° 1.1 mm 7 mps 752 mmHg 61%

    Tomorrow, 27 February, Monday

    Time Temperature Precipitation Wind Pressure Humidity
    00:00 +28°C° 0.1 mm 7 mps 752 mmHg 64%
    01:00 +28°C° 0.1 mm 6 mps 752 mmHg 67%
    02:00 +28°C° 0.1 mm 5 mps 752 mmHg 69%
    03:00 +27°C° 0 mm 5 mps 752 mmHg 69%
    04:00 +27°C° 0 mm 5 mps 752 mmHg 69%
    05:00 +27°C° 0 mm 4 mps 751 mmHg 69%
    06:00 +28°C° 0 mm 4 mps 751 mmHg 64%
    07:00 +29°C° 0 mm 4 mps 751 mmHg 58%
    08:00 +30°C° 0 mm 4 mps 751 mmHg 53%
    09:00 +33°C° 0 mm 3 mps 751 mmHg 48%
    10:00 +34°C° 0 mm 3 mps 751 mmHg 43%
    11:00 +36°C° 0 mm 2 mps 751 mmHg 39%
    12:00 +36°C° 0 mm 3 mps 751 mmHg 37%
    13:00 +37°C° 0 mm 4 mps 750 mmHg 36%
    14:00 +37°C° 0 mm 4 mps 750 mmHg 34%
    15:00 +37°C° 0 mm 4 mps 750 mmHg 35%
    16:00 +37°C° 0 mm 4 mps 749 mmHg 35%
    17:00 +37°C° 0 mm 4 mps 749 mmHg 35%
    18:00 +35°C° 0 mm 5 mps 749 mmHg 38%
    19:00 +34°C° 0 mm 5 mps 749 mmHg 42%
    20:00 +33°C° 0 mm 5 mps 749 mmHg 46%
    21:00 +32°C° 0 mm 5 mps 749 mmHg 49%
    22:00 +30°C° 0 mm 5 mps 749 mmHg 51%
    23:00 +29°C° 0 mm 4 mps 749 mmHg 54%

    Day after tomorrow, 28 February, Tuesday

    Time Temperature Precipitation Wind Pressure Humidity
    00:00 +29°C° 0 mm 4 mps 749 mmHg 54%
    01:00 +28°C° 0 mm 4 mps 748 mmHg 54%
    02:00 +28°C° 0 mm 4 mps 748 mmHg 54%
    03:00 +28°C° 0 mm 4 mps 748 mmHg 54%
    04:00 +27°C° 0 mm 4 mps 748 mmHg 54%
    05:00 +27°C° 0 mm 4 mps 747 mmHg 54%
    06:00 +27°C° 0 mm 4 mps 747 mmHg 56%
    07:00 +28°C° 0 mm 4 mps 747 mmHg 58%
    08:00 +29°C° 0 mm 4 mps 747 mmHg 60%
    09:00 +30°C° 0 mm 4 mps 747 mmHg 50%
    10:00 +33°C° 0 mm 5 mps 747 mmHg 41%
    11:00 +35°C° 0 mm 5 mps 747 mmHg 32%
    12:00 +36°C° 0 mm 6 mps 746 mmHg 28%
    13:00 +38°C° 0 mm 7 mps 746 mmHg 23%
    14:00 +39°C° 0 mm 8 mps 745 mmHg 18%
    15:00 +39°C° 0 mm 8 mps 745 mmHg 18%
    16:00 +39°C° 0 mm 8 mps 744 mmHg 18%
    17:00 +39°C° 0 mm 9 mps 744 mmHg 18%
    18:00 +37°C° 0 mm 8 mps 744 mmHg 22%
    19:00 +34°C° 0 mm 7 mps 744 mmHg 27%
    20:00 +33°C° 0 mm 7 mps 745 mmHg 31%
    21:00 +32°C° 0 mm 8 mps 745 mmHg 32%
    22:00 +31°C° 0 mm 9 mps 746 mmHg 33%
    23:00 +29°C° 0 mm 10 mps 746 mmHg 33%

    1 March, Wednesday

    Time Temperature Precipitation Wind Pressure Humidity
    00:00 +28°C° 0 mm 9 mps 746 mmHg 35%
    01:00 +28°C° 0 mm 9 mps 747 mmHg 36%
    02:00 +27°C° 0 mm 8 mps 747 mmHg 37%
    03:00 +26°C° 0 mm 9 mps 748 mmHg 38%
    04:00 +23°C° 0 mm 9 mps 748 mmHg 39%
    05:00 +21°C° 0 mm 9 mps 749 mmHg 41%
    06:00 +21°C° 0 mm 9 mps 749 mmHg 39%
    07:00 +21°C° 0 mm 10 mps 750 mmHg 38%
    08:00 +21°C° 0 mm 10 mps 751 mmHg 36%
    09:00 +21°C° 0 mm 9 mps 751 mmHg 34%
    10:00 +21°C° 0 mm 9 mps 752 mmHg 31%
    11:00 +22°C° 0 mm 8 mps 752 mmHg 29%
    12:00 +22°C° 0 mm 7 mps 752 mmHg 28%
    13:00 +22°C° 0 mm 6 mps 752 mmHg 27%
    14:00 +22°C° 0 mm 6 mps 751 mmHg 26%
    15:00 +22°C° 0 mm 5 mps 751 mmHg 26%
    16:00 +22°C° 0 mm 4 mps 751 mmHg 26%
    17:00 +22°C° 0 mm 4 mps 751 mmHg 26%
    18:00 +21°C° 0 mm 4 mps 750 mmHg 28%
    19:00 +20°C° 0 mm 4 mps 750 mmHg 30%
    20:00 +20°C° 0 mm 4 mps 750 mmHg 32%
    21:00 +19°C° 0 mm 5 mps 750 mmHg 38%
    22:00 +19°C° 0 mm 6 mps 750 mmHg 44%
    23:00 +18°C° 0 mm 7 mps 750 mmHg 50%

    2 March, Thursday

    Time Temperature Precipitation Wind Pressure Humidity
    00:00 +18°C° 0 mm 7 mps 750 mmHg 54%
    01:00 +19°C° 0 mm 6 mps 749 mmHg 57%
    02:00 +19°C° 0 mm 6 mps 749 mmHg 60%
    03:00 +19°C° 0.1 mm 5 mps 749 mmHg 63%
    04:00 +19°C° 0.1 mm 5 mps 749 mmHg 65%
    05:00 +19°C° 0.1 mm 5 mps 749 mmHg 67%
    06:00 +20°C° 0.3 mm 5 mps 749 mmHg 61%
    07:00 +21°C° 0.3 mm 6 mps 750 mmHg 55%
    08:00 +21°C° 0.3 mm 7 mps 750 mmHg 48%
    09:00 +21°C° 0.1 mm 7 mps 751 mmHg 47%
    10:00 +21°C° 0.1 mm 8 mps 751 mmHg 45%
    11:00 +21°C° 0.1 mm 9 mps 752 mmHg 44%
    12:00 +22°C° 0 mm 9 mps 752 mmHg 39%
    13:00 +23°C° 0 mm 8 mps 752 mmHg 34%
    14:00 +24°C° 0 mm 8 mps 752 mmHg 29%
    15:00 +24°C° 0 mm 7 mps 752 mmHg 27%
    16:00 +24°C° 0 mm 6 mps 753 mmHg 25%
    17:00 +24°C° 0 mm 6 mps 753 mmHg 23%
    18:00 +23°C° 0 mm 5 mps 753 mmHg 25%
    19:00 +22°C° 0 mm 4 mps 754 mmHg 27%
    20:00 +21°C° 0 mm 3 mps 754 mmHg 28%
    21:00 +21°C° 0 mm 3 mps 754 mmHg 30%
    22:00 +20°C° 0 mm 3 mps 755 mmHg 31%
    23:00 +20°C° 0 mm 4 mps 755 mmHg 32%

    3 March, Friday

    Time Temperature Precipitation Wind Pressure Humidity
    00:00 +20°C° 0 mm 4 mps 755 mmHg 34%
    01:00 +20°C° 0 mm 5 mps 756 mmHg 37%
    02:00 +20°C° 0 mm 6 mps 756 mmHg 39%
    03:00 +19°C° 0 mm 6 mps 756 mmHg 41%
    04:00 +19°C° 0 mm 6 mps 757 mmHg 43%
    05:00 +19°C° 0 mm 6 mps 757 mmHg 45%
    06:00 +18°C° 0 mm 7 mps 758 mmHg 43%
    07:00 +20°C° 0 mm 7 mps 758 mmHg 41%
    08:00 +20°C° 0 mm 8 mps 759 mmHg 39%
    09:00 +21°C° 0 mm 7 mps 759 mmHg 37%
    10:00 +22°C° 0 mm 7 mps 760 mmHg 34%
    11:00 +22°C° 0 mm 6 mps 760 mmHg 32%
    12:00 +23°C° 0 mm 6 mps 760 mmHg 31%
    13:00 +23°C° 0 mm 6 mps 760 mmHg 30%
    14:00 +23°C° 0 mm 5 mps 760 mmHg 29%
    15:00 +23°C° 0 mm 5 mps 760 mmHg 30%
    16:00 +22°C° 0 mm 5 mps 760 mmHg 30%
    17:00 +22°C° 0 mm 4 mps 760 mmHg 31%
    18:00 +21°C° 0 mm 3 mps 760 mmHg 34%
    19:00 +20°C° 0 mm 3 mps 760 mmHg 37%
    20:00 +19°C° 0 mm 2 mps 761 mmHg 40%
    21:00 +19°C° 0 mm 2 mps 761 mmHg 43%
    22:00 +18°C° 0 mm 3 mps 761 mmHg 45%
    23:00 +18°C° 0 mm 3 mps 761 mmHg 48%
    Show more